Hourly Data Report for October 29, 2016

All times are specified in Local Standard Time (LST). Add 1 hour to adjust for Daylight Saving Time where and when it is observed.

PANGNIRTUNG
NUNAVUT

66°08'36.300" N
65°42'40.500" W
22.60 m
2403049
71826
WXP

Download Data

Hourly Data (October 2016)
Hourly Data Report for October 29, 2016
Temp Definition
°C
Dew Point Temp Definition
°C
Rel Hum Definition
%
Wind Dir Definition
10's deg

Wind Spd Definition
km/h
Visibility Definition
km
Stn Press Definition
kPa
Hmdx Definition


Wind Chill Definition


Weather Definition


TIME
00:00 -2.5 -3.8 91 9 34   100.06   -10 LegendNANA
01:00 -1.8 -4.5 82 8 31   99.97   -9 LegendNANA
02:00 -1.8 -3.8 86 9 39   99.88   -10 LegendNANA
03:00 -1.2 -3.7 83 8 32   99.83   -8 LegendNANA
04:00 -0.8 -4.0 78 8 33   99.69   -8 LegendNANA
05:00 -0.8 -2.7 87 9 37   99.64   -8 LegendNANA
06:00 -0.8 -3.4 82 9 35   99.61   -8 LegendNANA
07:00 -1.1 -2.4 91 10 34   99.54   -8 LegendNANA
08:00 -0.6 -3.5 81 10 23   99.54   -6 LegendNANA
09:00 -0.7 -3.5 82 9 15   99.49   -5 LegendNANA
10:00 -0.3 -4.0 76 10 13   99.41   -4 LegendNANA
11:00 -1.5 -3.0 89 10 32   99.36   -9 LegendNANA
12:00 -1.5 -2.9 90 10 31   99.32   -9 LegendNANA
13:00 -1.3 -2.8 90 11 20   99.29   -7 LegendNANA
14:00 -1.5 -2.6 92 11 26   99.28   -8 LegendNANA
15:00 -1.8 -2.6 94 9 26   99.26   -8 LegendNANA
16:00 -1.6 -2.4 95 10 22   99.23   -8 LegendNANA
17:00 -1.5 -2.4 93 8 17   99.18   -7 LegendNANA
18:00 -1.4 -2.4 93 9 16   99.17   -6 LegendNANA
19:00 -2.6 -3.0 97 25 22   99.23   -9 LegendNANA
20:00 -3.8 -4.4 96 25 27   99.34   -11 LegendNANA
21:00 -4.8 -5.3 96 24 29   99.43   -13 LegendNANA
22:00 -5.2 -6.0 94 24 27   99.51   -13 LegendNANA
23:00 -5.5 -6.1 96 24 32   99.58   -14 LegendNANA

Notes on Data Quality.

Legend

  • E = Estimated
  • M = Missing
  • NA = Not Available
  • ‡ = Partner data that is not subject to review by the National Climate Archives
Date modified: